QPF
0.00 0.00 0.00 0.00 0.00 0.00 0.00 0.00 0.00 0.00 0.00 0.00 0.00 0.00 0.00 0.00 0.00 0.01 0.00 0.00 0.00 0.00 0.00 0.00 0.00 0.00 0.00 0.00 0.00 0.00 0.00 0.00 0.00 0.00 0.00 0.00 0.00 0.00 0.00 0.00 0.00 0.00 0.00 0.00
0.00 0.00 0.00 0.00 0.00 0.00 0.00 0.00 0.00 0.00 0.01 0.01 0.01 0.01 0.00 0.00 0.01 0.01 0.01 0.00 0.00 0.00 0.00 0.00 0.01 0.00 0.00 0.00 0.00 0.00 0.00 0.00 0.00 0.00 0.00 0.00 0.00 0.00 0.00 0.00 0.00 0.00 0.00 0.00
0.00 0.00 0.00 0.00 0.00 0.00 0.00 0.01 0.00 0.00 0.01 0.01 0.01 0.01 0.01 0.01 0.01 0.01 0.01 0.01 0.01 0.01 0.01 0.01 0.01 0.01 0.01 0.01 0.01 0.01 0.01 0.00 0.00 0.00 0.00 0.00 0.00 0.00 0.00 0.00 0.00 0.00 0.00 0.00
0.00 0.00 0.00 0.00 0.00 0.01 0.01 0.01 0.01 0.01 0.01 0.01 0.02 0.02 0.02 0.02 0.02 0.02 0.02 0.02 0.01 0.01 0.01 0.01 0.01 0.01 0.01 0.01 0.01 0.01 0.01 0.01 0.01 0.01 0.00 0.00 0.00 0.00 0.00 0.00 0.00 0.00 0.00 0.00
0.00 0.00 0.00 0.00 0.01 0.01 0.01 0.01 0.01 0.02 0.04 0.04 0.03 0.02 0.02 0.02 0.03 0.03 0.03 0.02 0.02 0.01 0.01 0.01 0.01 0.01 0.01 0.01 0.01 0.01 0.01 0.01 0.02 0.01 0.01 0.01 0.00 0.00 0.00 0.00 0.00 0.00 0.00 0.00
0.00 0.00 0.00 0.00 0.01 0.02 0.02 0.01 0.01 0.02 0.02 0.03 0.04 0.06 0.06 0.05 0.04 0.03 0.02 0.02 0.02 0.01 0.01 0.01 0.01 0.01 0.01 0.01 0.01 0.02 0.03 0.03 0.03 0.02 0.02 0.01 0.01 0.01 0.01 0.01 0.01 0.01 0.01 0.01
0.00 0.00 0.00 0.01 0.02 0.04 0.04 0.03 0.02 0.02 0.02 0.03 0.03 0.05 0.06 0.05 0.03 0.02 0.02 0.01 0.01 0.01 0.01 0.01 0.01 0.01 0.01 0.02 0.03 0.05 0.05 0.05 0.04 0.04 0.03 0.03 0.03 0.03 0.03 0.02 0.02 0.03 0.03 0.03
0.00 0.01 0.01 0.02 0.02 0.04 0.04 0.03 0.02 0.02 0.02 0.02 0.02 0.03 0.03 0.02 0.01 0.01 0.01 0.01 0.00 0.00 0.00 0.00 0.01 0.01 0.01 0.02 0.04 0.05 0.05 0.06 0.06 0.06 0.06 0.05 0.05 0.04 0.04 0.04 0.03 0.03 0.02 0.02
0.01 0.01 0.01 0.02 0.02 0.03 0.02 0.01 0.01 0.01 0.01 0.01 0.02 0.02 0.01 0.01 0.01 0.01 0.00 0.00 0.00 0.00 0.00 0.01 0.01 0.01 0.01 0.02 0.03 0.03 0.04 0.05 0.05 0.05 0.05 0.04 0.03 0.03 0.02 0.02 0.01 0.01 0.01 0.01
0.01 0.01 0.01 0.01 0.02 0.02 0.02 0.02 0.01 0.01 0.02 0.02 0.02 0.02 0.01 0.01 0.01 0.00 0.00 0.00 0.00 0.00 0.00 0.01 0.01 0.01 0.01 0.02 0.02 0.02 0.03 0.03 0.04 0.03 0.03 0.03 0.02 0.02 0.01 0.02 0.01 0.01 0.01 0.01
0.01 0.01 0.01 0.01 0.02 0.03 0.02 0.02 0.02 0.02 0.02 0.02 0.02 0.02 0.01 0.00 0.00 0.00 0.00 0.01 0.01 0.01 0.01 0.01 0.01 0.01 0.01 0.01 0.01 0.01 0.01 0.02 0.02 0.02 0.02 0.02 0.02 0.01 0.01 0.01 0.01 0.01 0.01 0.01
0.01 0.02 0.02 0.03 0.03 0.03 0.02 0.02 0.02 0.02 0.02 0.02 0.01 0.01 0.00 0.00 0.00 0.00 0.00 0.00 0.00 0.00 0.00 0.00 0.00 0.00 0.00 0.00 0.00 0.00 0.01 0.01 0.01 0.01 0.01 0.01 0.01 0.01 0.01 0.01 0.01 0.00 0.00 0.01
0.01 0.02 0.03 0.03 0.03 0.03 0.02 0.03 0.03 0.03 0.02 0.01 0.01 0.00 0.00 0.00 0.00 0.00 0.00 0.00 0.00 0.00 0.00 0.00 0.00 0.00 0.00 0.00 0.00 0.00 0.00 0.00 0.00 0.00 0.00 0.00 0.00 0.00 0.00 0.00 0.00 0.00 0.00 0.00
0.02 0.03 0.03 0.04 0.04 0.04 0.04 0.04 0.03 0.02 0.01 0.01 0.00 0.00 0.00 0.00 0.00 0.00 0.00 0.00 0.00 0.00 0.00 0.00 0.00 0.00 0.00 0.00 0.00 0.00 0.00 0.00 0.00 0.00 0.00 0.00 0.00 0.00 0.00 0.00 0.00 0.00 0.00 0.01
0.04 0.04 0.05 0.04 0.04 0.04 0.03 0.03 0.03 0.02 0.01 0.00 0.00 0.00 0.00 0.00 0.00 0.00 0.00 0.00 0.00 0.00 0.00 0.00 0.00 0.00 0.00 0.00 0.00 0.00 0.00 0.00 0.00 0.00 0.00 0.00 0.00 0.00 0.00 0.00 0.00 0.00 0.00 0.01
0.04 0.05 0.04 0.04 0.04 0.03 0.02 0.01 0.01 0.01 0.00 0.00 0.00 0.00 0.00 0.00 0.00 0.00 0.00 0.00 0.00 0.00 0.00 0.00 0.00 0.00 0.00 0.00 0.00 0.00 0.00 0.00 0.00 0.00 0.00 0.00 0.00 0.00 0.00 0.00 0.00 0.00 0.00 0.01
0.07 0.06 0.04 0.03 0.03 0.02 0.02 0.02 0.01 0.01 0.00 0.00 0.00 0.00 0.00 0.00 0.00 0.00 0.00 0.00 0.00 0.00 0.00 0.00 0.00 0.00 0.00 0.00 0.00 0.00 0.00 0.00 0.00 0.00 0.00 0.00 0.00 0.00 0.00 0.00 0.00 0.00 0.00 0.01
0.05 0.04 0.02 0.02 0.02 0.02 0.02 0.01 0.01 0.00 0.00 0.00 0.00 0.00 0.00 0.00 0.00 0.00 0.00 0.00 0.00 0.00 0.00 0.00 0.00 0.00 0.00 0.00 0.00 0.00 0.00 0.00 0.00 0.00 0.00 0.00 0.00 0.00 0.00 0.00 0.00 0.01 0.01 0.01
0.02 0.01 0.00 0.00 0.00 0.00 0.00 0.00 0.00 0.00 0.00 0.00 0.00 0.00 0.00 0.00 0.00 0.00 0.00 0.00 0.00 0.00 0.00 0.00 0.00 0.00 0.00 0.00 0.00 0.00 0.00 0.00 0.00 0.00 0.00 0.00 0.00 0.00 0.00 0.00 0.01 0.01 0.01 0.02
0.01 0.00 0.00 0.00 0.00 0.00 0.00 0.00 0.00 0.00 0.00 0.00 0.00 0.00 0.00 0.00 0.00 0.00 0.00 0.00 0.00 0.00 0.00 0.00 0.00 0.00 0.00 0.00 0.00 0.00 0.00 0.00 0.00 0.00 0.00 0.00 0.00 0.00 0.01 0.01 0.02 0.03 0.04 0.05
0.01 0.01 0.01 0.01 0.00 0.00 0.00 0.00 0.00 0.00 0.00 0.00 0.00 0.00 0.00 0.00 0.00 0.00 0.00 0.00 0.00 0.00 0.00 0.00 0.00 0.00 0.00 0.00 0.00 0.00 0.00 0.00 0.00 0.00 0.00 0.00 0.01 0.01 0.02 0.02 0.04 0.06 0.08 0.09
0.02 0.01 0.01 0.00 0.00 0.00 0.00 0.00 0.00 0.00 0.00 0.00 0.00 0.00 0.00 0.00 0.00 0.00 0.00 0.00 0.00 0.00 0.00 0.00 0.00 0.00 0.00 0.00 0.00 0.00 0.00 0.00 0.00 0.00 0.01 0.01 0.02 0.03 0.03 0.04 0.05 0.07 0.10 0.10
0.02 0.01 0.00 0.00 0.00 0.00 0.00 0.00 0.00 0.00 0.00 0.00 0.00 0.00 0.00 0.00 0.00 0.00 0.00 0.00 0.00 0.00 0.00 0.00 0.00 0.00 0.00 0.00 0.00 0.00 0.00 0.00 0.00 0.01 0.01 0.01 0.02 0.04 0.04 0.05 0.07 0.08 0.10 0.12
0.01 0.00 0.00 0.00 0.00 0.00 0.00 0.00 0.00 0.00 0.00 0.00 0.00 0.00 0.00 0.00 0.00 0.00 0.00 0.00 0.00 0.00 0.00 0.00 0.00 0.00 0.00 0.00 0.00 0.00 0.00 0.01 0.01 0.01 0.01 0.01 0.02 0.03 0.05 0.07 0.08 0.08 0.09 0.10
0.00 0.00 0.00 0.00 0.00 0.00 0.00 0.00 0.00 0.00 0.00 0.00 0.00 0.00 0.00 0.00 0.00 0.00 0.00 0.00 0.00 0.00 0.00 0.00 0.00 0.00 0.00 0.00 0.00 0.01 0.01 0.01 0.01 0.01 0.01 0.02 0.03 0.04 0.06 0.07 0.07 0.08 0.09 0.10
0.00 0.00 0.00 0.00 0.00 0.00 0.00 0.00 0.00 0.00 0.00 0.00 0.01 0.01 0.00 0.00 0.00 0.00 0.00 0.00 0.00 0.00 0.00 0.00 0.00 0.00 0.00 0.00 0.01 0.01 0.01 0.01 0.01 0.01 0.01 0.02 0.03 0.04 0.04 0.05 0.05 0.06 0.07 0.08
0.00 0.00 0.00 0.00 0.00 0.00 0.00 0.00 0.01 0.01 0.01 0.01 0.01 0.01 0.00 0.00 0.01 0.01 0.01 0.01 0.01 0.01 0.00 0.00 0.00 0.00 0.00 0.00 0.01 0.01 0.01 0.01 0.01 0.01 0.02 0.02 0.03 0.03 0.03 0.03 0.04 0.05 0.06 0.06
MSLP
1011.78 1012.39 1013.02 1013.62 1014.14 1014.52 1014.70 1014.67 1014.41 1013.94 1013.31 1012.58 1011.83 1011.13 1010.55 1010.11 1009.83 1009.70 1009.69 1009.76 1009.88 1010.02 1010.16 1010.31 1010.47 1010.66 1010.91 1011.23 1011.62 1012.07 1012.57 1013.09 1013.60 1014.08 1014.51 1014.88 1015.20 1015.46 1015.68 1015.88 1016.06 1016.22 1016.37 1016.51
1011.98 1012.51 1013.01 1013.45 1013.78 1013.98 1014.02 1013.90 1013.61 1013.19 1012.67 1012.10 1011.52 1010.99 1010.53 1010.17 1009.91 1009.73 1009.62 1009.55 1009.52 1009.50 1009.52 1009.56 1009.66 1009.83 1010.08 1010.42 1010.83 1011.31 1011.83 1012.35 1012.86 1013.34 1013.76 1014.13 1014.44 1014.72 1014.96 1015.19 1015.39 1015.58 1015.75 1015.90
1012.35 1012.77 1013.11 1013.36 1013.51 1013.54 1013.45 1013.25 1012.97 1012.61 1012.21 1011.80 1011.41 1011.04 1010.73 1010.46 1010.22 1010.01 1009.81 1009.63 1009.45 1009.30 1009.18 1009.12 1009.14 1009.26 1009.48 1009.81 1010.21 1010.68 1011.18 1011.69 1012.17 1012.61 1013.01 1013.36 1013.67 1013.95 1014.20 1014.44 1014.67 1014.88 1015.07 1015.23
1012.85 1013.11 1013.28 1013.34 1013.30 1013.17 1012.97 1012.71 1012.43 1012.15 1011.88 1011.63 1011.42 1011.24 1011.07 1010.90 1010.72 1010.52 1010.28 1010.01 1009.73 1009.47 1009.24 1009.09 1009.03 1009.08 1009.25 1009.52 1009.89 1010.30 1010.75 1011.20 1011.62 1012.01 1012.35 1012.66 1012.94 1013.21 1013.46 1013.70 1013.94 1014.16 1014.36 1014.53
1013.33 1013.42 1013.39 1013.27 1013.06 1012.79 1012.50 1012.21 1011.96 1011.75 1011.61 1011.53 1011.49 1011.49 1011.47 1011.43 1011.34 1011.18 1010.94 1010.65 1010.32 1010.00 1009.70 1009.48 1009.35 1009.33 1009.43 1009.63 1009.92 1010.25 1010.61 1010.97 1011.30 1011.61 1011.88 1012.13 1012.36 1012.58 1012.81 1013.04 1013.27 1013.48 1013.67 1013.83
1013.62 1013.53 1013.33 1013.04 1012.69 1012.33 1011.98 1011.68 1011.47 1011.36 1011.34 1011.41 1011.55 1011.71 1011.85 1011.95 1011.97 1011.89 1011.72 1011.45 1011.13 1010.80 1010.48 1010.22 1010.04 1009.96 1009.99 1010.11 1010.30 1010.53 1010.78 1011.03 1011.26 1011.46 1011.64 1011.80 1011.97 1012.14 1012.32 1012.51 1012.71 1012.90 1013.06 1013.19
1013.56 1013.32 1012.98 1012.57 1012.14 1011.72 1011.37 1011.10 1010.95 1010.94 1011.04 1011.26 1011.55 1011.86 1012.16 1012.40 1012.54 1012.57 1012.49 1012.30 1012.04 1011.74 1011.44 1011.18 1010.98 1010.86 1010.83 1010.87 1010.96 1011.09 1011.23 1011.35 1011.47 1011.56 1011.64 1011.71 1011.80 1011.90 1012.02 1012.16 1012.30 1012.44 1012.56 1012.64
1013.09 1012.73 1012.30 1011.84 1011.39 1010.99 1010.68 1010.48 1010.43 1010.52 1010.75 1011.09 1011.51 1011.96 1012.38 1012.75 1013.02 1013.17 1013.19 1013.11 1012.93 1012.70 1012.45 1012.22 1012.02 1011.88 1011.80 1011.77 1011.78 1011.81 1011.84 1011.86 1011.87 1011.86 1011.84 1011.83 1011.83 1011.86 1011.90 1011.97 1012.05 1012.12 1012.18 1012.20
1012.22 1011.81 1011.36 1010.92 1010.53 1010.21 1009.99 1009.91 1009.98 1010.19 1010.53 1010.97 1011.49 1012.04 1012.56 1013.02 1013.39 1013.64 1013.77 1013.78 1013.70 1013.55 1013.37 1013.18 1013.00 1012.86 1012.75 1012.67 1012.61 1012.57 1012.52 1012.45 1012.37 1012.28 1012.18 1012.09 1012.01 1011.96 1011.93 1011.92 1011.92 1011.92 1011.90 1011.84
1011.11 1010.71 1010.32 1009.97 1009.69 1009.51 1009.44 1009.50 1009.70 1010.03 1010.47 1010.99 1011.58 1012.18 1012.75 1013.26 1013.69 1014.00 1014.21 1014.30 1014.30 1014.22 1014.10 1013.95 1013.81 1013.67 1013.55 1013.44 1013.34 1013.24 1013.13 1013.01 1012.87 1012.72 1012.56 1012.41 1012.27 1012.14 1012.03 1011.94 1011.86 1011.78 1011.67 1011.54
1009.97 1009.64 1009.36 1009.15 1009.04 1009.03 1009.14 1009.36 1009.69 1010.13 1010.64 1011.21 1011.82 1012.43 1013.00 1013.51 1013.95 1014.29 1014.52 1014.66 1014.70 1014.68 1014.60 1014.49 1014.37 1014.24 1014.11 1013.99 1013.87 1013.75 1013.61 1013.46 1013.29 1013.10 1012.91 1012.71 1012.51 1012.32 1012.14 1011.97 1011.80 1011.63 1011.44 1011.22
1009.06 1008.84 1008.70 1008.66 1008.73 1008.91 1009.19 1009.56 1010.01 1010.52 1011.08 1011.66 1012.24 1012.81 1013.33 1013.80 1014.20 1014.51 1014.73 1014.87 1014.93 1014.92 1014.87 1014.78 1014.68 1014.56 1014.44 1014.32 1014.19 1014.06 1013.91 1013.75 1013.57 1013.37 1013.16 1012.92 1012.68 1012.43 1012.18 1011.93 1011.67 1011.40 1011.12 1010.81
1008.54 1008.45 1008.46 1008.59 1008.83 1009.17 1009.60 1010.08 1010.61 1011.16 1011.72 1012.27 1012.80 1013.29 1013.73 1014.11 1014.43 1014.68 1014.85 1014.96 1015.01 1015.00 1014.96 1014.88 1014.78 1014.67 1014.56 1014.44 1014.33 1014.20 1014.06 1013.91 1013.73 1013.52 1013.29 1013.03 1012.74 1012.44 1012.11 1011.77 1011.41 1011.05 1010.67 1010.27
1008.51 1008.53 1008.67 1008.93 1009.31 1009.77 1010.29 1010.84 1011.41 1011.96 1012.48 1012.96 1013.40 1013.79 1014.12 1014.40 1014.62 1014.79 1014.91 1014.97 1014.99 1014.97 1014.92 1014.85 1014.76 1014.66 1014.56 1014.45 1014.35 1014.23 1014.11 1013.96 1013.79 1013.58 1013.33 1013.04 1012.70 1012.33 1011.92 1011.48 1011.02 1010.55 1010.06 1009.56
1008.93 1009.03 1009.26 1009.61 1010.06 1010.58 1011.15 1011.71 1012.26 1012.77 1013.22 1013.61 1013.94 1014.21 1014.43 1014.60 1014.73 1014.82 1014.88 1014.91 1014.90 1014.87 1014.82 1014.76 1014.68 1014.60 1014.51 1014.42 1014.33 1014.24 1014.12 1013.98 1013.81 1013.59 1013.31 1012.97 1012.58 1012.12 1011.62 1011.07 1010.50 1009.91 1009.31 1008.71
1009.67 1009.83 1010.10 1010.48 1010.96 1011.48 1012.02 1012.55 1013.04 1013.47 1013.83 1014.12 1014.34 1014.50 1014.61 1014.69 1014.74 1014.77 1014.78 1014.78 1014.77 1014.75 1014.71 1014.66 1014.61 1014.55 1014.49 1014.42 1014.35 1014.26 1014.15 1014.01 1013.83 1013.58 1013.27 1012.88 1012.40 1011.86 1011.25 1010.59 1009.90 1009.18 1008.46 1007.76
1010.58 1010.75 1011.02 1011.39 1011.83 1012.31 1012.79 1013.25 1013.65 1013.98 1014.23 1014.42 1014.53 1014.59 1014.62 1014.63 1014.63 1014.62 1014.62 1014.62 1014.62 1014.62 1014.61 1014.60 1014.58 1014.56 1014.52 1014.48 1014.42 1014.35 1014.24 1014.09 1013.88 1013.60 1013.23 1012.77 1012.22 1011.58 1010.86 1010.09 1009.27 1008.43 1007.60 1006.79
1011.48 1011.64 1011.88 1012.21 1012.59 1012.99 1013.39 1013.74 1014.04 1014.27 1014.42 1014.50 1014.53 1014.52 1014.49 1014.45 1014.42 1014.41 1014.41 1014.44 1014.47 1014.51 1014.55 1014.59 1014.62 1014.63 1014.63 1014.61 1014.57 1014.50 1014.38 1014.21 1013.97 1013.64 1013.22 1012.69 1012.05 1011.32 1010.50 1009.62 1008.69 1007.75 1006.81 1005.92
1012.27 1012.39 1012.59 1012.86 1013.17 1013.48 1013.78 1014.04 1014.23 1014.36 1014.43 1014.43 1014.39 1014.33 1014.26 1014.20 1014.17 1014.17 1014.20 1014.27 1014.35 1014.44 1014.54 1014.63 1014.71 1014.77 1014.80 1014.81 1014.78 1014.70 1014.57 1014.37 1014.09 1013.71 1013.23 1012.64 1011.93 1011.12 1010.22 1009.25 1008.24 1007.21 1006.20 1005.24
1012.88 1012.98 1013.13 1013.34 1013.57 1013.81 1014.02 1014.18 1014.30 1014.34 1014.33 1014.28 1014.19 1014.10 1014.01 1013.96 1013.94 1013.96 1014.03 1014.14 1014.27 1014.42 1014.58 1014.72 1014.85 1014.95 1015.01 1015.03 1015.00 1014.92 1014.76 1014.53 1014.21 1013.79 1013.26 1012.61 1011.85 1010.99 1010.04 1009.02 1007.96 1006.88 1005.83 1004.84
1013.35 1013.42 1013.54 1013.69 1013.86 1014.02 1014.16 1014.26 1014.30 1014.29 1014.22 1014.13 1014.01 1013.90 1013.81 1013.76 1013.76 1013.82 1013.92 1014.07 1014.26 1014.46 1014.66 1014.85 1015.02 1015.14 1015.23 1015.25 1015.22 1015.12 1014.94 1014.68 1014.33 1013.87 1013.31 1012.63 1011.84 1010.95 1009.99 1008.95 1007.88 1006.81 1005.76 1004.76
1013.73 1013.78 1013.86 1013.97 1014.09 1014.19 1014.27 1014.31 1014.30 1014.24 1014.15 1014.02 1013.89 1013.78 1013.70 1013.66 1013.68 1013.76 1013.90 1014.09 1014.31 1014.55 1014.79 1015.01 1015.20 1015.35 1015.44 1015.46 1015.42 1015.30 1015.10 1014.81 1014.43 1013.95 1013.36 1012.67 1011.89 1011.01 1010.07 1009.06 1008.03 1006.99 1005.97 1005.01
1014.09 1014.11 1014.16 1014.23 1014.30 1014.35 1014.39 1014.38 1014.33 1014.24 1014.12 1013.99 1013.85 1013.74 1013.67 1013.66 1013.70 1013.81 1013.97 1014.19 1014.44 1014.71 1014.97 1015.21 1015.41 1015.56 1015.65 1015.66 1015.60 1015.46 1015.23 1014.92 1014.52 1014.02 1013.44 1012.76 1012.00 1011.17 1010.27 1009.33 1008.36 1007.40 1006.45 1005.55
1014.47 1014.45 1014.46 1014.48 1014.51 1014.52 1014.50 1014.46 1014.38 1014.27 1014.14 1014.00 1013.88 1013.79 1013.74 1013.74 1013.81 1013.94 1014.13 1014.37 1014.64 1014.92 1015.19 1015.44 1015.64 1015.79 1015.87 1015.86 1015.78 1015.61 1015.37 1015.03 1014.62 1014.12 1013.55 1012.90 1012.18 1011.41 1010.59 1009.73 1008.85 1007.98 1007.12 1006.31
1014.88 1014.81 1014.77 1014.74 1014.71 1014.67 1014.61 1014.53 1014.43 1014.31 1014.18 1014.06 1013.96 1013.89 1013.87 1013.91 1014.01 1014.17 1014.38 1014.64 1014.92 1015.21 1015.48 1015.72 1015.92 1016.05 1016.11 1016.08 1015.98 1015.79 1015.52 1015.17 1014.75 1014.26 1013.70 1013.09 1012.42 1011.72 1010.98 1010.22 1009.44 1008.67 1007.91 1007.18
1015.28 1015.16 1015.06 1014.96 1014.88 1014.79 1014.69 1014.59 1014.47 1014.36 1014.25 1014.15 1014.08 1014.05 1014.07 1014.15 1014.29 1014.48 1014.71 1014.99 1015.27 1015.56 1015.83 1016.06 1016.24 1016.35 1016.39 1016.34 1016.21 1016.00 1015.71 1015.35 1014.92 1014.44 1013.91 1013.33 1012.72 1012.08 1011.42 1010.74 1010.07 1009.39 1008.72 1008.07
1015.64 1015.46 1015.29 1015.14 1015.00 1014.87 1014.74 1014.62 1014.52 1014.42 1014.34 1014.29 1014.27 1014.29 1014.37 1014.49 1014.67 1014.89 1015.15 1015.43 1015.72 1016.00 1016.25 1016.46 1016.62 1016.70 1016.71 1016.64 1016.48 1016.25 1015.95 1015.58 1015.15 1014.68 1014.17 1013.62 1013.06 1012.47 1011.88 1011.28 1010.68 1010.07 1009.48 1008.90
Thickness
5732 5737 5734 5731 5729 5721 5712 5709 5702 5712 5716 5730 5735 5739 5744 5749 5752 5751 5751 5749 5748 5746 5745 5744 5742 5741 5739 5738 5734 5730 5724 5720 5717 5714 5709 5704 5700 5696 5692 5688 5685 5682 5678 5675
5730 5735 5732 5728 5730 5726 5721 5720 5715 5717 5720 5732 5732 5735 5737 5741 5744 5744 5744 5745 5745 5745 5744 5742 5741 5740 5738 5736 5732 5727 5722 5719 5716 5711 5705 5701 5697 5693 5688 5685 5681 5678 5675 5672
5711 5721 5724 5714 5725 5724 5721 5722 5720 5715 5721 5725 5723 5723 5725 5730 5733 5735 5737 5738 5739 5738 5738 5738 5739 5739 5736 5733 5729 5723 5719 5716 5711 5707 5702 5699 5694 5689 5685 5681 5677 5674 5671 5668
5700 5708 5697 5716 5732 5730 5721 5719 5719 5719 5718 5719 5717 5716 5719 5722 5724 5725 5728 5729 5730 5731 5732 5733 5733 5733 5731 5727 5722 5717 5712 5709 5706 5701 5697 5693 5688 5685 5681 5677 5673 5670 5668 5665
5688 5690 5698 5715 5724 5721 5715 5714 5719 5715 5715 5716 5717 5716 5712 5715 5717 5717 5718 5719 5719 5721 5722 5724 5723 5723 5721 5717 5713 5709 5705 5702 5699 5695 5691 5687 5682 5680 5677 5672 5670 5667 5665 5662
5684 5686 5685 5709 5723 5725 5717 5706 5719 5715 5712 5712 5712 5700 5696 5703 5706 5707 5708 5709 5709 5710 5711 5711 5709 5710 5708 5704 5700 5697 5695 5692 5690 5687 5683 5679 5676 5673 5670 5667 5665 5662 5659 5657
5680 5681 5691 5713 5719 5717 5695 5701 5717 5713 5709 5706 5700 5695 5693 5695 5696 5696 5696 5697 5697 5698 5697 5694 5695 5696 5692 5689 5686 5685 5683 5682 5679 5677 5674 5670 5667 5665 5661 5658 5656 5653 5651 5650
5672 5674 5685 5713 5711 5704 5704 5710 5709 5706 5703 5698 5692 5689 5686 5685 5684 5684 5684 5684 5684 5683 5681 5679 5680 5680 5677 5673 5672 5672 5670 5668 5666 5663 5661 5659 5656 5653 5650 5648 5645 5642 5640 5639
5684 5690 5703 5708 5708 5709 5707 5704 5702 5698 5695 5691 5685 5679 5677 5674 5672 5671 5671 5671 5670 5668 5666 5665 5664 5664 5661 5658 5658 5658 5656 5654 5651 5649 5646 5644 5642 5639 5637 5634 5631 5630 5628 5627
5685 5695 5701 5703 5704 5704 5703 5700 5698 5695 5689 5685 5677 5672 5667 5663 5661 5660 5659 5658 5656 5655 5653 5650 5649 5648 5646 5644 5644 5643 5640 5637 5635 5632 5630 5628 5626 5624 5621 5619 5617 5615 5613 5612
5682 5691 5695 5699 5699 5698 5696 5695 5691 5686 5681 5676 5670 5663 5659 5655 5652 5650 5648 5645 5643 5641 5639 5636 5635 5634 5633 5631 5631 5628 5625 5622 5619 5617 5614 5612 5611 5608 5606 5604 5601 5598 5597 5596
5682 5691 5688 5691 5693 5692 5688 5684 5680 5675 5669 5664 5660 5654 5649 5644 5642 5639 5637 5634 5632 5630 5628 5626 5624 5622 5621 5618 5616 5613 5610 5607 5604 5601 5599 5597 5595 5595 5593 5589 5587 5584 5580 5577
5686 5688 5685 5684 5683 5682 5677 5673 5669 5664 5659 5653 5648 5644 5639 5634 5631 5629 5626 5624 5622 5620 5617 5615 5612 5610 5608 5605 5602 5599 5595 5593 5590 5587 5585 5582 5580 5578 5578 5578 5574 5570 5566 5563
5679 5679 5673 5671 5668 5667 5665 5660 5655 5650 5645 5641 5637 5633 5629 5625 5621 5619 5616 5614 5612 5609 5606 5603 5600 5598 5595 5592 5588 5585 5581 5578 5575 5572 5569 5566 5563 5560 5558 5556 5557 5556 5553 5548
5668 5668 5663 5659 5656 5653 5650 5646 5641 5634 5631 5627 5624 5621 5618 5614 5611 5608 5606 5604 5601 5598 5595 5591 5588 5584 5581 5577 5574 5570 5566 5563 5560 5556 5552 5549 5545 5542 5539 5536 5534 5534 5534 5532
5654 5654 5652 5647 5641 5638 5634 5630 5625 5620 5618 5615 5612 5609 5607 5604 5601 5598 5596 5593 5589 5586 5582 5577 5574 5570 5567 5563 5559 5555 5550 5547 5544 5540 5535 5531 5527 5524 5521 5518 5516 5514 5513 5512
5641 5636 5634 5630 5626 5623 5620 5617 5613 5609 5606 5604 5602 5599 5596 5593 5590 5588 5585 5581 5576 5572 5567 5563 5559 5556 5552 5547 5542 5538 5534 5530 5526 5521 5517 5512 5509 5505 5502 5499 5498 5497 5497 5495
5631 5628 5625 5621 5615 5610 5606 5604 5601 5599 5596 5595 5593 5589 5585 5582 5579 5576 5573 5568 5563 5559 5554 5550 5545 5540 5536 5531 5526 5521 5517 5512 5508 5504 5500 5496 5492 5488 5485 5483 5483 5482 5483 5483
5617 5614 5610 5607 5603 5599 5595 5592 5591 5589 5587 5585 5582 5578 5574 5571 5567 5563 5559 5554 5550 5545 5540 5535 5530 5525 5520 5515 5511 5505 5501 5497 5493 5488 5484 5480 5477 5474 5471 5470 5469 5469 5469 5471
5602 5600 5597 5594 5591 5588 5585 5583 5581 5578 5575 5573 5570 5566 5562 5559 5555 5550 5545 5539 5533 5528 5523 5519 5514 5509 5504 5500 5496 5491 5486 5482 5478 5475 5471 5468 5465 5462 5460 5459 5458 5459 5459 5461
5585 5584 5582 5580 5578 5576 5574 5571 5568 5566 5564 5561 5557 5554 5550 5545 5541 5536 5530 5525 5519 5513 5508 5503 5498 5494 5489 5485 5481 5476 5472 5468 5465 5461 5459 5456 5455 5453 5452 5451 5450 5451 5452 5453
5570 5568 5568 5566 5564 5562 5560 5558 5556 5554 5552 5548 5545 5541 5536 5531 5526 5520 5515 5509 5504 5498 5493 5488 5483 5479 5475 5471 5467 5463 5459 5456 5453 5450 5448 5446 5445 5445 5444 5444 5444 5445 5446 5448
5556 5555 5554 5553 5551 5548 5546 5544 5543 5540 5538 5535 5531 5527 5522 5516 5510 5506 5501 5494 5489 5484 5478 5473 5469 5466 5462 5458 5454 5451 5448 5445 5442 5440 5439 5438 5437 5436 5436 5437 5437 5438 5440 5443
5543 5542 5540 5538 5536 5535 5533 5531 5528 5525 5523 5519 5515 5511 5506 5501 5495 5490 5485 5480 5475 5470 5465 5460 5456 5453 5450 5446 5443 5439 5437 5435 5433 5431 5430 5429 5429 5429 5430 5430 5431 5433 5435 5438
5530 5528 5526 5525 5523 5521 5518 5516 5514 5512 5509 5505 5501 5496 5492 5488 5482 5476 5472 5467 5461 5457 5453 5449 5445 5442 5439 5435 5432 5429 5427 5425 5424 5423 5422 5422 5422 5423 5424 5425 5427 5429 5432 5435
5516 5514 5512 5510 5508 5506 5504 5502 5500 5497 5494 5491 5487 5482 5477 5473 5468 5463 5459 5454 5450 5445 5441 5438 5434 5431 5428 5425 5423 5420 5418 5417 5416 5415 5415 5416 5417 5418 5419 5421 5424 5426 5429 5431
5502 5501 5499 5498 5497 5495 5493 5490 5488 5486 5483 5479 5475 5469 5465 5461 5457 5452 5448 5444 5439 5435 5432 5428 5425 5422 5419 5417 5414 5413 5411 5410 5410 5410 5410 5411 5412 5413 5415 5418 5420 5423 5426 5429